Weather History for Pecos, TX

Change the Weather History Date:

Sunday, August 12, 2012

  Actual Average Record
Temperature  
Mean Temperature 86 °F -  
Max Temperature 106 °F 94 °F 106 °F (1943)
Min Temperature 68 °F 67 °F 60 °F (1960)
Cooling Degree Days 22    
Growing Degree Days 36 (Base 50)    
Moisture  
Dew Point 45 °F    
Average Humidity 26    
Maximum Humidity 47    
Minimum Humidity 11    
Precipitation  
Precipitation 0.00 in - - ()
Sea Level Pressure  
Sea Level Pressure 29.96 in    
Wind  
Wind Speed 6 mph (SE)    
Max Wind Speed 16 mph    
Max Gust Speed 21 mph    
Visibility 10 miles    
Events      
Averages and records for this station are not official NWS values.
T = Trace of Precipitation, MM = Missing Value Source: NWS Daily Summary

Daily Weather History Graph

Daily Weather History Graph

Search for Another Location

Airport:

Trip Planner

Search our weather history database for the weather conditions in past years. The results will help you decide how hot, cold, wet, or windy it might be!

Date:

Astronomy

Aug. 12, 2012 Rise Set
Actual Time 7:17 AM CDT 8:39 PM CDT
Civil Twilight 6:52 AM CDT 9:05 PM CDT
Nautical Twilight 6:21 AM CDT 9:35 PM CDT
Astronomical Twilight 5:49 AM CDT 10:07 PM CDT
Moon 2:40 AM CDT (8/12) 4:58 PM CDT (8/12)
Length of Visible Light 14h 12m
Length of Day
13h 21m
Waning Crescent, 24% of the Moon is Illuminated
Aug 12
Waning Crescent
Aug 17
New
Aug 24
First Quarter
Aug 31
Full
Sep 8
Last Quarter

Hourly Weather History & Observations

Time (CDT) Temp. Dew Point Humidity Pressure Visibility Wind Dir Wind Speed Gust Speed Precip Events Conditions
12:15 AM 81.9 °F 44.4 °F 27% 29.96 in 10.0 mi SE 9.2 mph - N/A   Clear
12:35 AM 82.4 °F 44.6 °F 26% 29.97 in 10.0 mi SE 9.2 mph - N/A   Clear
12:55 AM 83.1 °F 44.8 °F 26% 29.97 in 10.0 mi SSE 9.2 mph - N/A   Clear
1:15 AM 83.5 °F 45.5 °F 26% 29.97 in 10.0 mi SSE 8.1 mph - N/A   Clear
1:35 AM 82.9 °F 46.2 °F 28% 29.97 in 10.0 mi SSE 9.2 mph - N/A   Clear
1:55 AM 82.4 °F 46.4 °F 28% 29.97 in 10.0 mi SSE 6.9 mph - N/A   Clear
2:15 AM 79.5 °F 46.4 °F 31% 29.96 in 10.0 mi South 5.8 mph - N/A   Clear
2:35 AM 78.1 °F 46.4 °F 33% 29.96 in 10.0 mi South 6.9 mph - N/A   Clear
2:55 AM 76.6 °F 45.7 °F 33% 29.96 in 10.0 mi South 3.5 mph - N/A   Clear
3:15 AM 75.4 °F 45.7 °F 35% 29.96 in 10.0 mi SSW 3.5 mph - N/A   Clear
3:35 AM 74.7 °F 45.5 °F 35% 29.96 in 10.0 mi SW 3.5 mph - N/A   Clear
4:15 AM 73.9 °F 45.5 °F 36% 29.96 in 10.0 mi Calm Calm - N/A   Clear
4:35 AM 72.5 °F 45.1 °F 37% 29.95 in 10.0 mi Calm Calm - N/A   Clear
4:55 AM 71.6 °F 45.9 °F 40% 29.96 in 10.0 mi Calm Calm - N/A   Clear
5:15 AM 70.3 °F 46.8 °F 43% 29.96 in 10.0 mi ESE 3.5 mph - N/A   Clear
5:35 AM 70.2 °F 46.6 °F 43% 29.96 in 10.0 mi ESE 3.5 mph - N/A   Clear
5:55 AM 70.2 °F 46.6 °F 43% 29.96 in 10.0 mi West 6.9 mph - N/A   Clear
6:15 AM 70.2 °F 45.9 °F 42% 29.97 in 10.0 mi West 5.8 mph - N/A   Clear
6:35 AM 70.3 °F 47.3 °F 44% 29.97 in 10.0 mi NNW 3.5 mph - N/A   Clear
6:55 AM 69.4 °F 47.3 °F 45% 29.98 in 10.0 mi Calm Calm - N/A   Clear
7:15 AM 68.5 °F 47.3 °F 47% 29.98 in 10.0 mi Calm Calm - N/A   Clear
7:35 AM 68.5 °F 47.1 °F 46% 29.99 in 10.0 mi Calm Calm - N/A   Clear
7:55 AM 69.6 °F 47.5 °F 45% 29.99 in 10.0 mi Calm Calm - N/A   Clear
8:15 AM 70.2 °F 48.9 °F 47% 30.00 in 10.0 mi Calm Calm - N/A   Clear
8:35 AM 72.5 °F 47.1 °F 40% 30.00 in 10.0 mi Calm Calm - N/A   Clear
8:55 AM 74.8 °F 47.8 °F 38% 30.01 in 10.0 mi Calm Calm - N/A   Clear
9:15 AM 76.8 °F 47.8 °F 36% 30.01 in 10.0 mi Calm Calm - N/A   Clear
9:35 AM 79.7 °F 48.2 °F 33% 30.01 in 10.0 mi Calm Calm - N/A   Clear
9:55 AM 83.1 °F 48.2 °F 30% 30.02 in 10.0 mi Calm Calm - N/A   Clear
10:15 AM 86.2 °F 47.3 °F 26% 30.01 in 10.0 mi Calm Calm - N/A   Clear
10:35 AM 88.0 °F 47.1 °F 24% 30.01 in 10.0 mi Calm Calm - N/A   Clear
10:55 AM 89.6 °F 46.9 °F 23% 30.01 in 10.0 mi Calm Calm - N/A   Clear
11:15 AM 91.8 °F 46.8 °F 21% 30.00 in 10.0 mi Calm Calm - N/A   Clear
11:35 AM 94.8 °F 47.3 °F 20% 30.00 in 10.0 mi East 3.5 mph - N/A   Clear
11:55 AM 96.3 °F 46.8 °F 18% 29.99 in 10.0 mi SE 4.6 mph - N/A   Clear
12:15 PM 98.1 °F 45.9 °F 17% 29.99 in 10.0 mi Calm Calm - N/A   Clear
12:35 PM 99.3 °F 46.0 °F 16% 29.98 in 10.0 mi NNE 4.6 mph - N/A   Clear
12:55 PM 99.0 °F 44.4 °F 15% 29.98 in 10.0 mi Calm Calm - N/A   Clear
1:15 PM 100.8 °F 44.2 °F 15% 29.97 in 10.0 mi Calm Calm - N/A   Clear
1:35 PM 102.0 °F 44.2 °F 14% 29.96 in 10.0 mi East 3.5 mph - N/A   Clear
1:55 PM 102.7 °F 44.4 °F 14% 29.95 in 10.0 mi East 8.1 mph - N/A   Clear
2:15 PM 103.6 °F 43.2 °F 13% 29.95 in 10.0 mi ESE 6.9 mph - N/A   Clear
2:55 PM 104.0 °F 42.1 °F 12% 29.93 in 10.0 mi NNE 5.8 mph - N/A   Clear
3:15 PM 104.7 °F 42.4 °F 12% 29.93 in 10.0 mi North 3.5 mph - N/A   Clear
3:35 PM 105.3 °F 43.7 °F 12% 29.92 in 10.0 mi SSE 8.1 mph - N/A   Clear
3:55 PM 105.1 °F 43.3 °F 12% 29.91 in 10.0 mi ENE 5.8 mph - N/A   Clear
5:55 PM 105.6 °F 41.2 °F 11% 29.88 in 10.0 mi ESE 6.9 mph 17.3 mph N/A   Clear
7:35 PM 102.2 °F 41.9 °F 13% 29.88 in 10.0 mi SE 13.8 mph - N/A   Clear
7:55 PM 101.3 °F 41.4 °F 13% 29.88 in 10.0 mi SE 12.7 mph 17.3 mph N/A   Clear
8:15 PM 99.5 °F 41.2 °F 13% 29.89 in 10.0 mi SE 16.1 mph 20.7 mph N/A   Clear
8:35 PM 97.7 °F 41.4 °F 14% 29.89 in 10.0 mi SE 12.7 mph 18.4 mph N/A   Clear
8:55 PM 96.6 °F 41.2 °F 15% 29.90 in 10.0 mi SE 12.7 mph - N/A   Clear
9:15 PM 95.0 °F 41.9 °F 16% 29.91 in 10.0 mi SE 11.5 mph - N/A   Clear
9:35 PM 94.1 °F 43.2 °F 17% 29.91 in 10.0 mi SE 12.7 mph - N/A   Clear
9:55 PM 93.0 °F 44.4 °F 19% 29.92 in 10.0 mi SE 11.5 mph - N/A   Clear
10:15 PM 91.9 °F 45.0 °F 20% 29.93 in 10.0 mi SE 11.5 mph - N/A   Clear
10:35 PM 90.9 °F 45.5 °F 21% 29.93 in 10.0 mi SE 11.5 mph - N/A   Clear
10:55 PM 89.6 °F 46.0 °F 22% 29.95 in 10.0 mi SE 10.4 mph - N/A   Clear
11:15 PM 89.6 °F 46.4 °F 22% 29.95 in 10.0 mi SE 11.5 mph - N/A   Clear
11:35 PM 89.6 °F 46.8 °F 23% 29.96 in 10.0 mi SE 10.4 mph - N/A   Clear
11:55 PM 88.9 °F 47.3 °F 24% 29.97 in 10.0 mi SE 10.4 mph - N/A   Clear